• In Austria
  • List of Countries
  • For 7 days
  • Water Temperature
  • Satellite Maps
  • Weather Map
  • News
  • Weather Widgets
  • user-avatar
    Login

    Hourly Weather Wyrow

    Today, 18 August, Saturday

    Time Temperature Precipitation Wind Pressure Humidity
    00:00 +21°C° 0 mm 3 mps 752 mmHg 69%
    01:00 +21°C° 0 mm 2 mps 752 mmHg 73%
    02:00 +20°C° 0 mm 2 mps 752 mmHg 74%
    03:00 +20°C° 0 mm 2 mps 752 mmHg 76%
    04:00 +20°C° 0 mm 2 mps 752 mmHg 78%
    05:00 +22°C° 0 mm 1 mps 753 mmHg 74%
    06:00 +23°C° 0 mm 1 mps 753 mmHg 71%
    07:00 +24°C° 0 mm 1 mps 753 mmHg 67%
    08:00 +25°C° 0 mm 1 mps 753 mmHg 63%
    09:00 +26°C° 0 mm 1 mps 754 mmHg 58%
    10:00 +28°C° 0 mm 1 mps 754 mmHg 53%
    11:00 +29°C° 0 mm 1 mps 754 mmHg 49%
    12:00 +30°C° 0 mm 1 mps 754 mmHg 46%
    13:00 +31°C° 0 mm 1 mps 754 mmHg 43%
    14:00 +31°C° 0 mm 2 mps 754 mmHg 42%
    15:00 +31°C° 0 mm 2 mps 754 mmHg 42%
    16:00 +31°C° 0 mm 3 mps 754 mmHg 42%
    17:00 +29°C° 0 mm 2 mps 754 mmHg 47%
    18:00 +28°C° 0 mm 2 mps 754 mmHg 53%
    19:00 +26°C° 0 mm 2 mps 754 mmHg 58%
    20:00 +25°C° 0.4 mm 2 mps 754 mmHg 63%
    21:00 +24°C° 0.4 mm 3 mps 754 mmHg 68%
    22:00 +22°C° 0.4 mm 3 mps 755 mmHg 73%
    23:00 +21°C° 0.1 mm 2 mps 755 mmHg 75%

    Tomorrow, 19 August, Sunday

    Time Temperature Precipitation Wind Pressure Humidity
    00:00 +20°C° 0.1 mm 2 mps 755 mmHg 78%
    01:00 +20°C° 0.1 mm 2 mps 755 mmHg 80%
    02:00 +19°C° 0 mm 2 mps 755 mmHg 83%
    03:00 +19°C° 0 mm 2 mps 755 mmHg 86%
    04:00 +19°C° 0 mm 2 mps 755 mmHg 89%
    05:00 +21°C° 0 mm 1 mps 755 mmHg 84%
    06:00 +22°C° 0 mm 1 mps 755 mmHg 80%
    07:00 +21°C° 0 mm 0 mps 756 mmHg 76%
    08:00 +24°C° 0 mm 1 mps 756 mmHg 67%
    09:00 +26°C° 0 mm 1 mps 756 mmHg 57%
    10:00 +27°C° 0 mm 2 mps 756 mmHg 48%
    11:00 +28°C° 0 mm 2 mps 755 mmHg 45%
    12:00 +29°C° 0 mm 2 mps 755 mmHg 42%
    13:00 +30°C° 0 mm 2 mps 755 mmHg 40%
    14:00 +29°C° 0 mm 2 mps 754 mmHg 40%
    15:00 +29°C° 0 mm 2 mps 754 mmHg 40%
    16:00 +29°C° 0 mm 2 mps 754 mmHg 40%
    17:00 +28°C° 0 mm 1 mps 754 mmHg 44%
    18:00 +27°C° 0 mm 1 mps 754 mmHg 48%
    19:00 +25°C° 0 mm 1 mps 754 mmHg 52%
    20:00 +23°C° 0 mm 0 mps 754 mmHg 54%
    21:00 +22°C° 0 mm 0 mps 754 mmHg 56%
    22:00 +21°C° 0 mm 0 mps 754 mmHg 58%
    23:00 +23°C° 0 mm 1 mps 754 mmHg 60%

    Day after tomorrow, 20 August, Monday

    Time Temperature Precipitation Wind Pressure Humidity
    00:00 +22°C° 0 mm 1 mps 754 mmHg 62%
    01:00 +22°C° 0 mm 1 mps 754 mmHg 64%
    02:00 +22°C° 0 mm 1 mps 753 mmHg 66%
    03:00 +21°C° 0 mm 1 mps 753 mmHg 68%
    04:00 +21°C° 0 mm 1 mps 753 mmHg 71%
    05:00 +21°C° 0 mm 2 mps 753 mmHg 69%
    06:00 +23°C° 0 mm 2 mps 753 mmHg 68%
    07:00 +24°C° 0 mm 2 mps 753 mmHg 66%
    08:00 +26°C° 0.3 mm 2 mps 753 mmHg 61%
    09:00 +27°C° 0.3 mm 2 mps 753 mmHg 55%
    10:00 +29°C° 0.3 mm 2 mps 753 mmHg 50%
    11:00 +29°C° 0.2 mm 2 mps 752 mmHg 47%
    12:00 +30°C° 0.2 mm 3 mps 752 mmHg 45%
    13:00 +31°C° 0.2 mm 3 mps 752 mmHg 42%
    14:00 +31°C° 0 mm 3 mps 751 mmHg 41%
    15:00 +31°C° 0 mm 3 mps 751 mmHg 40%
    16:00 +31°C° 0 mm 3 mps 751 mmHg 40%
    17:00 +29°C° 0 mm 2 mps 751 mmHg 43%
    18:00 +28°C° 0 mm 2 mps 751 mmHg 46%
    19:00 +27°C° 0 mm 1 mps 750 mmHg 50%
    20:00 +26°C° 0 mm 2 mps 751 mmHg 51%
    21:00 +26°C° 0 mm 2 mps 751 mmHg 53%
    22:00 +25°C° 0 mm 2 mps 751 mmHg 54%
    23:00 +24°C° 0 mm 2 mps 751 mmHg 57%

    21 August, Tuesday

    Time Temperature Precipitation Wind Pressure Humidity
    00:00 +24°C° 0 mm 3 mps 751 mmHg 60%
    01:00 +22°C° 0 mm 3 mps 751 mmHg 63%
    02:00 +21°C° 0 mm 3 mps 751 mmHg 68%
    03:00 +21°C° 0 mm 3 mps 751 mmHg 73%
    04:00 +20°C° 0 mm 3 mps 752 mmHg 78%
    05:00 +20°C° 0 mm 4 mps 752 mmHg 78%
    06:00 +20°C° 0 mm 4 mps 752 mmHg 79%
    07:00 +21°C° 0 mm 4 mps 753 mmHg 79%
    08:00 +22°C° 0 mm 4 mps 753 mmHg 73%
    09:00 +23°C° 0 mm 4 mps 753 mmHg 67%
    10:00 +25°C° 0 mm 4 mps 754 mmHg 61%
    11:00 +26°C° 0 mm 4 mps 754 mmHg 56%
    12:00 +27°C° 0 mm 4 mps 754 mmHg 50%
    13:00 +28°C° 0 mm 5 mps 754 mmHg 44%
    14:00 +28°C° 0 mm 4 mps 754 mmHg 44%
    15:00 +28°C° 0 mm 4 mps 754 mmHg 44%
    16:00 +28°C° 0 mm 4 mps 754 mmHg 43%
    17:00 +26°C° 0 mm 3 mps 754 mmHg 47%
    18:00 +25°C° 0 mm 3 mps 754 mmHg 51%
    19:00 +24°C° 0 mm 2 mps 754 mmHg 56%
    20:00 +23°C° 0 mm 2 mps 754 mmHg 58%
    21:00 +21°C° 0 mm 2 mps 755 mmHg 61%
    22:00 +21°C° 0 mm 1 mps 755 mmHg 63%
    23:00 +21°C° 0 mm 1 mps 755 mmHg 65%

    22 August, Wednesday

    Time Temperature Precipitation Wind Pressure Humidity
    00:00 +20°C° 0 mm 1 mps 755 mmHg 66%
    01:00 +20°C° 0 mm 1 mps 755 mmHg 68%
    02:00 +20°C° 0 mm 1 mps 755 mmHg 67%
    03:00 +20°C° 0 mm 1 mps 755 mmHg 66%
    04:00 +20°C° 0 mm 1 mps 755 mmHg 66%
    05:00 +20°C° 0 mm 2 mps 755 mmHg 64%
    06:00 +21°C° 0 mm 2 mps 755 mmHg 63%
    07:00 +23°C° 0 mm 2 mps 755 mmHg 62%
    08:00 +24°C° 0 mm 2 mps 755 mmHg 57%
    09:00 +26°C° 0 mm 2 mps 755 mmHg 53%
    10:00 +27°C° 0 mm 3 mps 755 mmHg 48%
    11:00 +28°C° 0 mm 2 mps 754 mmHg 46%
    12:00 +28°C° 0 mm 2 mps 754 mmHg 45%
    13:00 +29°C° 0 mm 2 mps 754 mmHg 43%
    14:00 +29°C° 0 mm 2 mps 754 mmHg 43%
    15:00 +29°C° 0 mm 2 mps 753 mmHg 44%
    16:00 +29°C° 0 mm 1 mps 753 mmHg 45%
    17:00 +28°C° 0 mm 1 mps 753 mmHg 48%
    18:00 +27°C° 0 mm 1 mps 753 mmHg 50%
    19:00 +26°C° 0 mm 1 mps 753 mmHg 53%
    20:00 +25°C° 0 mm 1 mps 753 mmHg 55%
    21:00 +24°C° 0 mm 1 mps 753 mmHg 58%
    22:00 +23°C° 0 mm 2 mps 754 mmHg 60%
    23:00 +23°C° 0 mm 1 mps 754 mmHg 61%

    23 August, Thursday

    Time Temperature Precipitation Wind Pressure Humidity
    00:00 +23°C° 0 mm 1 mps 754 mmHg 62%
    01:00 +23°C° 0 mm 1 mps 754 mmHg 63%
    02:00 +22°C° 0 mm 1 mps 753 mmHg 64%
    03:00 +22°C° 0 mm 1 mps 753 mmHg 65%
    04:00 +22°C° 0 mm 1 mps 753 mmHg 65%
    05:00 +23°C° 0 mm 1 mps 753 mmHg 65%
    06:00 +23°C° 0 mm 1 mps 753 mmHg 64%
    07:00 +24°C° 0 mm 1 mps 754 mmHg 64%
    08:00 +25°C° 0 mm 1 mps 753 mmHg 59%
    09:00 +27°C° 0 mm 2 mps 753 mmHg 54%
    10:00 +28°C° 0 mm 2 mps 753 mmHg 49%
    11:00 +29°C° 0 mm 2 mps 753 mmHg 46%
    12:00 +29°C° 0 mm 2 mps 752 mmHg 43%
    13:00 +30°C° 0 mm 1 mps 752 mmHg 40%
    14:00 +30°C° 0 mm 1 mps 752 mmHg 41%
    15:00 +30°C° 0 mm 1 mps 751 mmHg 41%
    16:00 +30°C° 0 mm 1 mps 751 mmHg 42%
    17:00 +29°C° 0 mm 2 mps 751 mmHg 44%
    18:00 +28°C° 0 mm 2 mps 751 mmHg 47%
    19:00 +26°C° 0 mm 2 mps 751 mmHg 50%
    20:00 +26°C° 0 mm 3 mps 751 mmHg 52%
    21:00 +25°C° 0 mm 3 mps 751 mmHg 53%
    22:00 +24°C° 0 mm 3 mps 750 mmHg 55%
    23:00 +22°C° 0 mm 3 mps 750 mmHg 57%
    Show more